map of AZA home
Great Circle Mapper logo
AZA - Airport
Location
City:  Phoenix, Arizona, United States
Name:Phoenix-Mesa Gateway Airport
Old (Alt.):Williams Gateway
ICAO / IATA:KIWA / AZA
FAA:IWA

Details
Type:Airport (Part 139 Class I)
Use:Public/Civil
Latitude:3318'28"N (33.307833)
Longitude:11139'20"W (-111.655471)
Datum:WGS 1984
Elevation:1383 ft (422 m)
Variation:10.5E (WMM2015 magnetic declination)
Runways:3
Longest:10401 × 150 ft (3170 × 45.5 m), paved

Time
Time Zone:UTC-7
Local Time:

Weather
METAR:KIWA 200450Z 00000KT 20SM FEW250 08/04 A3016
TAF:KIWA 192320Z 2000/2024 29006KT P6SM BKN200
FM200400 12005KT P6SM BKN200
FM202000 27005KT P6SM OVC200
AMD LTD TO CLD VIS AND WIND 2003/2013

Related Locations
Nearby:
Farthest:RRG: 11449 mi / 18426 km
Plaine Corail, Rodrigues Island, MU

Find:

   beyond  
but within

Other Information
Maps:
NOTAMs:
Links:
Sources:

  
flag of United States
flag of Arizona
flag of Phoenix
  

Airport Diagram

Airport diagram for AZA

Airport diagram PDF

Sectional Chart

Flight Planning
at skyvector.com

Satellite Image

Google Maps Satellite View

 

Copyright © 2004-2014 Karl L. Swartz. All rights reserved.
The Great Circle Mapper name and logo are trademarks of the Great Circle Mapper.
All other trademarks mentioned herein belong to their respective owners.
Please see credits for attibutions and further copyright information.

  Follow gcmap on Facebook Follow gcmap on Twitter

hCard Microformat

Geo Microformat